Weather History for KSDF - September, 2013

Change the Weather History Date:

Sunday, September 22, 2013

  Actual Average Record
Temperature  
Mean Temperature 63 °F 68 °F  
Max Temperature 73 °F 79 °F 99 °F (2010)
Min Temperature 53 °F 58 °F 40 °F (1983)
Degree Days  
Heating Degree Days 2 2  
Month to date heating degree days 4 9  
Since 1 July heating degree days 4 9  
Cooling Degree Days 0 5  
Month to date cooling degree days 204 179  
Year to date cooling degree days 1544 1536  
Growing Degree Days 13 (Base 50)    
Moisture  
Dew Point 48 °F    
Average Humidity 62    
Maximum Humidity 83    
Minimum Humidity 41    
Precipitation  
Precipitation 0.00 in 0.10 in 4.28 in (2006)
Month to date precipitation 2.66 2.18  
Year to date precipitation 34.47 33.40  
Snow  
Snow 0.00 in 0.00 in - ()
Month to date snowfall 0.0 0.0  
Since 1 July snowfall 0.0 0.0  
Since 1 September snowfall 0.0 0.0  
Snow Depth 0.00 in    
Sea Level Pressure  
Sea Level Pressure 29.95 in    
Wind  
Wind Speed 6 mph (NNE)    
Max Wind Speed 14 mph    
Max Gust Speed 18 mph    
Visibility 10 miles    
Events      
T = Trace of Precipitation, MM = Missing Value Source: NWS Daily Summary

Daily Weather History Graph

Daily Weather History Graph

Search for Another Location

Airport or City:

Trip Planner

Search our weather history database for the weather conditions in past years. The results will help you decide how hot, cold, wet, or windy it might be!

Date:

Astronomy

Sep. 22, 2013 Rise Set
Actual Time 7:30 AM EDT 7:39 PM EDT
Civil Twilight 7:04 AM EDT 8:05 PM EDT
Nautical Twilight 6:33 AM EDT 8:36 PM EDT
Astronomical Twilight 6:02 AM EDT 9:07 PM EDT
Moon 9:32 PM EDT (9/22) 10:47 AM EDT (9/22)
Length of Visible Light 13h 01m
Length of Day
12h 08m
Waning Gibbous, 89% of the Moon is Illuminated
Sep 22
Waning Gibbous
Sep 26
Last Quarter
Oct 4
New
Oct 11
First Quarter
Oct 18
Full

Hourly Weather History & Observations

Time (EDT) Temp. Dew Point Humidity Pressure Visibility Wind Dir Wind Speed Gust Speed Precip Events Conditions
12:56 AM 59.0 °F 50.0 °F 72% 29.88 in 10.0 mi Calm Calm - N/A   Clear
1:56 AM 59.0 °F 48.9 °F 69% 29.90 in 10.0 mi North 5.8 mph - N/A   Clear
2:56 AM 57.0 °F 50.0 °F 77% 29.90 in 10.0 mi North 5.8 mph - N/A   Clear
3:56 AM 55.0 °F 50.0 °F 83% 29.91 in 10.0 mi North 4.6 mph - N/A   Clear
4:56 AM 54.0 °F 48.9 °F 83% 29.92 in 10.0 mi North 3.5 mph - N/A   Clear
5:56 AM 54.0 °F 48.9 °F 83% 29.93 in 10.0 mi North 3.5 mph - N/A   Clear
6:56 AM 53.1 °F 48.9 °F 86% 29.95 in 10.0 mi North 4.6 mph - N/A   Clear
7:56 AM 53.1 °F 48.9 °F 86% 29.96 in 10.0 mi North 3.5 mph - N/A   Clear
8:56 AM 57.0 °F 48.9 °F 74% 29.97 in 10.0 mi NNE 5.8 mph - N/A   Clear
9:56 AM 61.0 °F 50.0 °F 67% 29.99 in 10.0 mi NNE 5.8 mph - N/A   Clear
10:56 AM 64.0 °F 48.0 °F 56% 30.00 in 10.0 mi ENE 8.1 mph - N/A   Partly Cloudy
11:56 AM 66.0 °F 45.0 °F 47% 29.99 in 10.0 mi NE 9.2 mph - N/A   Partly Cloudy
12:56 PM 68.0 °F 46.9 °F 47% 29.99 in 10.0 mi NNE 11.5 mph - N/A   Partly Cloudy
1:56 PM 70.0 °F 46.9 °F 44% 29.98 in 10.0 mi NE 4.6 mph - N/A   Partly Cloudy
2:56 PM 71.1 °F 46.9 °F 42% 29.96 in 10.0 mi North 10.4 mph - N/A   Partly Cloudy
3:56 PM 72.0 °F 46.9 °F 41% 29.94 in 10.0 mi North 11.5 mph 18.4 mph N/A   Partly Cloudy
4:56 PM 73.0 °F 48.0 °F 41% 29.93 in 10.0 mi North 5.8 mph - N/A   Partly Cloudy
5:56 PM 72.0 °F 48.0 °F 43% 29.93 in 10.0 mi North 9.2 mph - N/A   Clear
6:56 PM 70.0 °F 46.9 °F 44% 29.94 in 10.0 mi NNE 9.2 mph - N/A   Clear
7:56 PM 66.9 °F 48.0 °F 51% 29.95 in 10.0 mi North 5.8 mph - N/A   Clear
8:56 PM 64.0 °F 48.9 °F 58% 29.96 in 10.0 mi NNE 5.8 mph - N/A   Clear
9:56 PM 63.0 °F 48.9 °F 60% 29.98 in 10.0 mi ENE 4.6 mph - N/A   Clear
10:56 PM 61.0 °F 48.9 °F 64% 29.99 in 10.0 mi ENE 5.8 mph - N/A   Clear
11:56 PM 60.1 °F 48.9 °F 67% 29.99 in 10.0 mi ENE 4.6 mph - N/A   Clear